Indian Springs, NV

3:58 PM PDT on October 19, 2017 (GMT -0700)
Indian Springs Air Force Auxiliary

Weather History for KINS - November, 2012

Change the Weather History Date:

Tuesday, November 13, 2012

  Actual Average (KDRA) Record (KDRA)
Temperature  
Mean Temperature 46 °F -  
Max Temperature 62 °F 61 °F 82 °F (1999)
Min Temperature 29 °F 39 °F 22 °F (2000)
Degree Days  
Heating Degree Days 20    
Moisture  
Dew Point 10 °F    
Average Humidity 30    
Maximum Humidity 46    
Minimum Humidity 8    
Precipitation  
Precipitation 0.00 in - - ()
Sea Level Pressure  
Sea Level Pressure 30.24 in    
Wind  
Wind Speed 4 mph (NNW)    
Max Wind Speed 8 mph    
Max Gust Speed -    
Visibility 10 miles    
Events      
Averages and records for this station are not official NWS values.
T = Trace of Precipitation, MM = Missing Value Source: NWS Daily Summary

Daily Weather History Graph

Daily Weather History Graph

Search for Another Location

Airport or City:

Trip Planner

Search our weather history database for the weather conditions in past years. The results will help you decide how hot, cold, wet, or windy it might be!

Date:

Astronomy

Nov. 13, 2012 Rise Set
Actual Time 6:18 AM PST 4:34 PM PST
Civil Twilight 5:51 AM PST 5:02 PM PST
Nautical Twilight 5:20 AM PST 5:33 PM PST
Astronomical Twilight 4:49 AM PST 6:03 PM PST
Moon 6:01 AM PST (11/13) 4:32 PM PST (11/13)
Length of Visible Light 11h 10m
Length of Day
10h 15m
Waning Crescent, 0% of the Moon is Illuminated
Nov 13
Waning Crescent
Nov 13
New
Nov 20
First Quarter
Nov 28
Full
Dec 6
Last Quarter

Hourly Weather History & Observations

Time (PST) Temp. Windchill Dew Point Humidity Pressure Visibility Wind Dir Wind Speed Gust Speed Precip Events Conditions
12:58 AM 32.5 °F 26.2 °F 11.1 °F 41% 30.30 in 10.0 mi West 6.9 mph - N/A   Clear
1:58 AM 32.0 °F 26.4 °F 11.3 °F 42% 30.30 in 10.0 mi SW 5.8 mph - N/A   Clear
2:58 AM 32.7 °F 28.3 °F 11.1 °F 41% 30.28 in 10.0 mi West 4.6 mph - N/A   Clear
3:58 AM 29.8 °F 26.3 °F 9.9 °F 43% 30.28 in 10.0 mi West 3.5 mph - N/A   Clear
4:58 AM 29.7 °F - 10.8 °F 45% 30.27 in 10.0 mi ENE 1.2 mph - N/A   Clear
5:58 AM 29.8 °F - 11.1 °F 46% 30.28 in 10.0 mi Calm Calm - N/A   Clear
6:58 AM 29.8 °F - 11.1 °F 46% 30.28 in 10.0 mi Calm Calm - N/A   Clear
7:59 AM 35.6 °F - 11.1 °F 36% 30.28 in 10.0 mi Calm Calm - N/A   Clear
8:58 AM 43.3 °F - 13.8 °F 30% 30.30 in 10.0 mi NE 1.2 mph - N/A   Clear
9:00 AM 42.8 °F - 14.0 °F 31% 30.30 in 10.0 mi NNE 1.2 mph - N/A   Clear
9:58 AM 46.8 °F - 12.6 °F 25% 30.30 in 10.0 mi Calm Calm - N/A   Clear
10:58 AM 52.5 °F - 12.2 °F 20% 30.28 in 10.0 mi Calm Calm - N/A   Clear
11:58 AM 56.5 °F - 6.1 °F 13% 30.25 in 10.0 mi NE 1.2 mph - N/A   Clear
12:58 PM 59.5 °F - 3.0 °F 10% 30.22 in 10.0 mi East 3.5 mph - N/A   Clear
1:58 PM 61.7 °F - -0.0 °F 8% 30.19 in 10.0 mi East 3.5 mph - N/A   Clear
2:58 PM 62.6 °F - 0.5 °F 8% 30.18 in 10.0 mi East 6.9 mph - N/A   Clear
3:58 PM 60.8 °F - 3.2 °F 10% 30.18 in 10.0 mi East 6.9 mph - N/A   Clear
4:58 PM 56.1 °F - 7.7 °F 14% 30.19 in 10.0 mi East 4.6 mph - N/A   Clear
5:58 PM 52.0 °F - 13.5 °F 22% 30.20 in 10.0 mi Calm Calm - N/A   Clear
6:58 PM 46.2 °F 42.7 °F 13.8 °F 27% 30.21 in 10.0 mi WSW 6.9 mph - N/A   Clear
7:58 PM 42.4 °F 37.5 °F 13.3 °F 31% 30.22 in 10.0 mi WSW 8.1 mph - N/A   Clear
8:58 PM 43.5 °F 40.1 °F 14.2 °F 31% 30.22 in 10.0 mi SW 5.8 mph - N/A   Clear
9:58 PM 36.7 °F 32.0 °F 14.4 °F 40% 30.20 in 10.0 mi West 5.8 mph - N/A   Clear
10:58 PM 36.5 °F - 15.4 °F 42% 30.21 in 10.0 mi WSW 2.3 mph - N/A   Clear
11:58 PM 38.1 °F - 15.4 °F 40% 30.20 in 10.0 mi North 2.3 mph - N/A   Clear